LiveATC.Net - Listen to live air traffic control over the Internet!


ICAO: KRIL  IATA: RIL   Airport: Rifle Garfield County Airport
City: Rifle   State/Province: Colorado
Country: United States   Continent: North America
KRIL METAR Weather: KRIL 251753Z AUTO VRB03KT 10SM CLR 18/M03 A3013 RMK AO2 SLP166 T01781028 10178 20011 56014
KRIL Flight Activity (FlightAware)
KRIL Airport Info   (iFlightPlanner)
KRIL VFR Sectional Chart   (iFlightPlanner) 
KRIL IFR Low Chart   (iFlightPlanner) 

KRIL CTAF/ZDV
Feed Status: DOWN
Last heard on: 2020-05-18 22:03:05 (6 days 20 hours 41 minutes ago)
Archive Access: KRIL CTAF/ZDV
FacilityFrequency
Denver Center (Low/Approach)134.950
Emergency/Guard121.500
Rifle CTAF122.800

NOTICE

Unauthorized use prohibited. See LiveATC.net Terms of Service


Airport/ARTCC Code
Frequency Search
(e.g., 124.400, 128.75)
Site-wide search
 


Browse Feeds
Top 50 Feeds
Coverage Map
Bad Weather Areas

LiveATC FAQ
Offer LiveATC feed
Contact LiveATC.net
Press Inquiries

LiveATC on iPhone
LiveATC on Android

Windows Phone
Windows 8/10

LiveATC Mobile
(Mobile browser)

ATC Audio Archives
Interesting Recordings

LiveATC Forums


Home Page
About LiveATC.net
Make a Donation
Terms of Use
Privacy Policy

Canadian Air Freqs

AIRMETs/SIGMETs

FAA Airport Status
Nat'l Airspace Status
Arrival Demand Charts


Server Software By:
Icecast.org
Liquidsoap